When you browse on this site, cookies collect data to enhance your experience and personalize the content and advertising you see.
Visit our Privacy Policy to learn more. By continuing to use the site, you agree to this use of cookies and data.
  • In Hungary
  • List of Countries
  • For 7 days
  • Water Temperature
  • Weather Map
  • News
  • Weather Widgets
  • user-avatar
    Login

    Hourly Weather Alba

    Today, 18 August, Sunday

    Time Temperature Precipitation Wind Pressure Humidity
    00:00 +21°C° 0 mm 1 mps 746 mmHg 88%
    01:00 +21°C° 0 mm 1 mps 746 mmHg 91%
    02:00 +20°C° 0 mm 1 mps 746 mmHg 91%
    03:00 +20°C° 0 mm 1 mps 746 mmHg 91%
    04:00 +18°C° 0 mm 0 mps 745 mmHg 91%
    05:00 +19°C° 0 mm 0 mps 745 mmHg 88%
    06:00 +19°C° 0 mm 0 mps 745 mmHg 86%
    07:00 +22°C° 0 mm 1 mps 746 mmHg 82%
    08:00 +24°C° 0 mm 1 mps 746 mmHg 74%
    09:00 +27°C° 0 mm 1 mps 746 mmHg 66%
    10:00 +29°C° 0 mm 1 mps 746 mmHg 58%
    11:00 +30°C° 0 mm 2 mps 746 mmHg 55%
    12:00 +30°C° 0 mm 2 mps 746 mmHg 52%
    13:00 +31°C° 0 mm 3 mps 746 mmHg 49%
    14:00 +31°C° 0 mm 3 mps 745 mmHg 50%
    15:00 +31°C° 0 mm 3 mps 745 mmHg 51%
    16:00 +31°C° 0 mm 3 mps 745 mmHg 52%
    17:00 +29°C° 0 mm 3 mps 745 mmHg 58%
    18:00 +28°C° 0 mm 3 mps 745 mmHg 65%
    19:00 +26°C° 0 mm 2 mps 745 mmHg 72%
    20:00 +25°C° 0 mm 2 mps 745 mmHg 78%
    21:00 +23°C° 0 mm 2 mps 745 mmHg 85%
    22:00 +22°C° 0 mm 1 mps 745 mmHg 91%
    23:00 +22°C° 0 mm 1 mps 745 mmHg 92%

    Tomorrow, 19 August, Monday

    Time Temperature Precipitation Wind Pressure Humidity
    00:00 +22°C° 0 mm 1 mps 745 mmHg 92%
    01:00 +21°C° 0 mm 1 mps 745 mmHg 92%
    02:00 +21°C° 0 mm 1 mps 745 mmHg 92%
    03:00 +21°C° 0 mm 1 mps 745 mmHg 92%
    04:00 +21°C° 0 mm 1 mps 745 mmHg 92%
    05:00 +22°C° 0 mm 1 mps 745 mmHg 89%
    06:00 +22°C° 0 mm 1 mps 745 mmHg 87%
    07:00 +23°C° 0 mm 1 mps 746 mmHg 84%
    08:00 +25°C° 0 mm 1 mps 746 mmHg 75%
    09:00 +27°C° 0 mm 1 mps 746 mmHg 65%
    10:00 +30°C° 0 mm 1 mps 746 mmHg 56%
    11:00 +31°C° 0 mm 1 mps 746 mmHg 53%
    12:00 +32°C° 0 mm 2 mps 746 mmHg 49%
    13:00 +34°C° 0 mm 2 mps 746 mmHg 46%
    14:00 +33°C° 0 mm 3 mps 746 mmHg 47%
    15:00 +33°C° 0 mm 3 mps 745 mmHg 48%
    16:00 +33°C° 0 mm 4 mps 745 mmHg 50%
    17:00 +30°C° 0.1 mm 3 mps 745 mmHg 57%
    18:00 +29°C° 0.1 mm 3 mps 745 mmHg 64%
    19:00 +27°C° 0.1 mm 2 mps 745 mmHg 71%
    20:00 +26°C° 0.2 mm 2 mps 746 mmHg 77%
    21:00 +24°C° 0.2 mm 1 mps 746 mmHg 83%
    22:00 +23°C° 0.2 mm 1 mps 746 mmHg 89%
    23:00 +22°C° 0.2 mm 1 mps 746 mmHg 89%

    Day after tomorrow, 20 August, Tuesday

    Time Temperature Precipitation Wind Pressure Humidity
    00:00 +22°C° 0.2 mm 1 mps 746 mmHg 90%
    01:00 +22°C° 0.2 mm 1 mps 746 mmHg 91%
    02:00 +22°C° 0.1 mm 1 mps 746 mmHg 91%
    03:00 +19°C° 0.1 mm 0 mps 746 mmHg 92%
    04:00 +19°C° 0.1 mm 0 mps 746 mmHg 92%
    05:00 +20°C° 0 mm 0 mps 746 mmHg 90%
    06:00 +22°C° 0 mm 1 mps 746 mmHg 88%
    07:00 +23°C° 0 mm 1 mps 747 mmHg 86%
    08:00 +24°C° 0 mm 1 mps 747 mmHg 77%
    09:00 +26°C° 0 mm 1 mps 747 mmHg 68%
    10:00 +28°C° 0 mm 1 mps 747 mmHg 59%
    11:00 +30°C° 0 mm 1 mps 747 mmHg 54%
    12:00 +32°C° 0 mm 1 mps 747 mmHg 48%
    13:00 +33°C° 0 mm 1 mps 747 mmHg 43%
    14:00 +34°C° 0 mm 2 mps 746 mmHg 42%
    15:00 +34°C° 0 mm 2 mps 746 mmHg 41%
    16:00 +35°C° 0 mm 3 mps 746 mmHg 40%
    17:00 +31°C° 0.2 mm 3 mps 746 mmHg 50%
    18:00 +29°C° 0.2 mm 2 mps 746 mmHg 60%
    19:00 +26°C° 0.2 mm 2 mps 745 mmHg 70%
    20:00 +25°C° 0.3 mm 2 mps 746 mmHg 76%
    21:00 +23°C° 0.3 mm 1 mps 746 mmHg 82%
    22:00 +22°C° 0.3 mm 1 mps 746 mmHg 87%
    23:00 +22°C° 0.3 mm 1 mps 746 mmHg 88%

    21 August, Wednesday

    Time Temperature Precipitation Wind Pressure Humidity
    00:00 +21°C° 0.3 mm 1 mps 746 mmHg 89%
    01:00 +21°C° 0.3 mm 1 mps 746 mmHg 90%
    02:00 +20°C° 0.2 mm 1 mps 746 mmHg 91%
    03:00 +18°C° 0.2 mm 0 mps 746 mmHg 92%
    04:00 +18°C° 0.2 mm 0 mps 746 mmHg 93%
    05:00 +18°C° 0 mm 0 mps 746 mmHg 91%
    06:00 +19°C° 0 mm 0 mps 746 mmHg 89%
    07:00 +19°C° 0 mm 0 mps 747 mmHg 87%
    08:00 +23°C° 0 mm 1 mps 747 mmHg 80%
    09:00 +24°C° 0 mm 1 mps 747 mmHg 73%
    10:00 +26°C° 0 mm 1 mps 747 mmHg 65%
    11:00 +28°C° 0 mm 1 mps 747 mmHg 58%
    12:00 +29°C° 0 mm 1 mps 747 mmHg 51%
    13:00 +31°C° 0 mm 1 mps 747 mmHg 44%
    14:00 +32°C° 0 mm 1 mps 747 mmHg 42%
    15:00 +32°C° 0 mm 1 mps 746 mmHg 41%
    16:00 +32°C° 0 mm 1 mps 746 mmHg 40%
    17:00 +31°C° 0 mm 1 mps 746 mmHg 45%
    18:00 +29°C° 0 mm 1 mps 746 mmHg 51%
    19:00 +28°C° 0 mm 1 mps 746 mmHg 56%
    20:00 +26°C° 0 mm 1 mps 747 mmHg 61%
    21:00 +25°C° 0 mm 1 mps 747 mmHg 66%
    22:00 +22°C° 0 mm 0 mps 747 mmHg 70%
    23:00 +23°C° 0.1 mm 1 mps 747 mmHg 73%

    22 August, Thursday

    Time Temperature Precipitation Wind Pressure Humidity
    00:00 +23°C° 0.1 mm 1 mps 747 mmHg 75%
    01:00 +22°C° 0.1 mm 1 mps 748 mmHg 77%
    02:00 +22°C° 0 mm 1 mps 747 mmHg 78%
    03:00 +21°C° 0 mm 1 mps 747 mmHg 80%
    04:00 +21°C° 0 mm 1 mps 747 mmHg 81%
    05:00 +22°C° 0 mm 1 mps 747 mmHg 79%
    06:00 +22°C° 0 mm 1 mps 747 mmHg 77%
    07:00 +23°C° 0 mm 1 mps 748 mmHg 76%
    08:00 +25°C° 0 mm 1 mps 748 mmHg 68%
    09:00 +27°C° 0 mm 1 mps 748 mmHg 61%
    10:00 +29°C° 0 mm 2 mps 748 mmHg 53%
    11:00 +30°C° 0 mm 2 mps 748 mmHg 49%
    12:00 +31°C° 0 mm 2 mps 748 mmHg 44%
    13:00 +34°C° 0 mm 2 mps 747 mmHg 40%
    14:00 +34°C° 0 mm 3 mps 747 mmHg 38%
    15:00 +34°C° 0 mm 3 mps 747 mmHg 37%
    16:00 +35°C° 0 mm 3 mps 747 mmHg 35%
    17:00 +32°C° 0 mm 2 mps 747 mmHg 42%
    18:00 +30°C° 0 mm 2 mps 747 mmHg 49%
    19:00 +28°C° 0 mm 2 mps 747 mmHg 56%
    20:00 +27°C° 0 mm 2 mps 747 mmHg 62%
    21:00 +25°C° 0 mm 1 mps 747 mmHg 67%
    22:00 +23°C° 0 mm 1 mps 748 mmHg 73%
    23:00 +23°C° 0 mm 1 mps 748 mmHg 74%

    23 August, Friday

    Time Temperature Precipitation Wind Pressure Humidity
    00:00 +22°C° 0 mm 1 mps 748 mmHg 76%
    01:00 +22°C° 0 mm 1 mps 748 mmHg 77%
    02:00 +21°C° 0.2 mm 1 mps 748 mmHg 79%
    03:00 +21°C° 0.2 mm 1 mps 748 mmHg 81%
    04:00 +21°C° 0.2 mm 1 mps 748 mmHg 83%
    05:00 +21°C° 0.3 mm 1 mps 748 mmHg 83%
    06:00 +21°C° 0.3 mm 1 mps 748 mmHg 83%
    07:00 +22°C° 0.3 mm 1 mps 748 mmHg 84%
    08:00 +24°C° 0.1 mm 1 mps 748 mmHg 76%
    09:00 +26°C° 0.1 mm 2 mps 748 mmHg 69%
    10:00 +27°C° 0.1 mm 2 mps 748 mmHg 61%
    11:00 +29°C° 0 mm 2 mps 748 mmHg 55%
    12:00 +31°C° 0 mm 3 mps 748 mmHg 49%
    13:00 +33°C° 0 mm 3 mps 748 mmHg 42%
    14:00 +34°C° 0 mm 3 mps 748 mmHg 41%
    15:00 +34°C° 0 mm 3 mps 747 mmHg 39%
    16:00 +34°C° 0 mm 3 mps 747 mmHg 38%
    17:00 +31°C° 0 mm 3 mps 747 mmHg 44%
    18:00 +30°C° 0 mm 2 mps 747 mmHg 50%
    19:00 +28°C° 0 mm 2 mps 747 mmHg 55%
    20:00 +26°C° 0.1 mm 2 mps 747 mmHg 61%
    21:00 +25°C° 0.1 mm 1 mps 747 mmHg 66%
    22:00 +23°C° 0.1 mm 1 mps 748 mmHg 72%
    23:00 +23°C° 0.2 mm 1 mps 748 mmHg 76%
    Show more